Fortuna, CA

9:05 PM PDT on September 19, 2019 (GMT -0700)
Rohnerville

Weather History for KFOT - July, 2019

Change the Weather History Date:

Tuesday, July 23, 2019

  Actual Average (WUND) Record (WUND)
Temperature  
Mean Temperature 60 °F -  
Max Temperature 64 °F - - (-1)
Min Temperature 55 °F - - (-1)
Degree Days  
Heating Degree Days 6    
Growing Degree Days 10 (Base 50)    
Moisture  
Dew Point 55 °F    
Average Humidity 88    
Maximum Humidity 100    
Minimum Humidity 73    
Precipitation  
Precipitation 0.00 in - - ()
Sea Level Pressure  
Sea Level Pressure 30.11 in    
Wind  
Wind Speed 5 mph (WNW)    
Max Wind Speed 18 mph    
Max Gust Speed 23 mph    
Visibility 9 miles    
Events      
Averages and records for this station are not official NWS values.
T = Trace of Precipitation, MM = Missing Value Source: NWS Daily Summary

Daily Weather History Graph

Daily Weather History Graph

Search for Another Location

Airport or City:

Astronomy

Jul. 23, 2019 Rise Set
Actual Time 6:05 AM PDT 8:40 PM PDT
Civil Twilight 5:33 AM PDT 9:11 PM PDT
Nautical Twilight 4:54 AM PDT 9:50 PM PDT
Astronomical Twilight 4:10 AM PDT 10:34 PM PDT
Moon 12:03 AM PDT (7/23) 12:25 PM PDT (7/23)
Length of Visible Light 15h 37m
Length of Day
14h 35m
Waning Gibbous, 62% of the Moon is Illuminated
Jul 23
Waning Gibbous
Jul 24
Last Quarter
Jul 31
New
Aug 7
First Quarter
Aug 15
Full

Hourly Weather History & Observations

Time (PDT) Temp. Dew Point Humidity Pressure Visibility Wind Dir Wind Speed Gust Speed Precip Events Conditions
12:10 AM 57.2 °F 55.4 °F 94% 30.08 in 10.0 mi Calm Calm - N/A   Overcast
12:30 AM 57.2 °F 55.4 °F 94% 30.08 in 10.0 mi Calm Calm - N/A   Overcast
12:50 AM 57.2 °F 55.4 °F 94% 30.08 in 10.0 mi Calm Calm - N/A   Overcast
1:10 AM 57.2 °F 55.4 °F 94% 30.08 in 10.0 mi North 4.6 mph - N/A   Overcast
1:30 AM 57.2 °F 55.4 °F 94% 30.08 in 10.0 mi Calm Calm - N/A   Overcast
1:50 AM 57.2 °F 55.4 °F 94% 30.07 in 10.0 mi Calm Calm - N/A   Overcast
2:10 AM 55.4 °F 53.6 °F 94% 30.07 in 10.0 mi North 3.5 mph - N/A   Overcast
2:30 AM 55.4 °F 53.6 °F 94% 30.07 in 10.0 mi Calm Calm - N/A   Overcast
2:50 AM 55.4 °F 53.6 °F 94% 30.06 in 10.0 mi Calm Calm - N/A   Overcast
3:10 AM 55.4 °F 53.6 °F 94% 30.06 in 10.0 mi Calm Calm - N/A   Overcast
3:30 AM 55.4 °F 55.4 °F 100% 30.06 in 10.0 mi Calm Calm - N/A   Overcast
3:50 AM 55.4 °F 55.4 °F 100% 30.06 in 10.0 mi Calm Calm - N/A   Overcast
4:10 AM 55.4 °F 55.4 °F 100% 30.06 in 9.0 mi Calm Calm - N/A   Overcast
4:30 AM 55.4 °F 55.4 °F 100% 30.07 in 5.0 mi Calm Calm - N/A   Overcast
4:50 AM 55.4 °F 55.4 °F 100% 30.07 in 5.0 mi Calm Calm - N/A   Overcast
5:10 AM 55.4 °F 53.6 °F 94% 30.07 in 3.0 mi Calm Calm - N/A   Overcast
5:30 AM 55.4 °F 55.4 °F 100% 30.07 in 2.0 mi Calm Calm - N/A   Overcast
5:50 AM 55.4 °F 55.4 °F 100% 30.08 in 0.2 mi West 5.8 mph - N/A   Overcast
6:10 AM 55.4 °F 55.4 °F 100% 30.08 in 1.0 mi WNW 4.6 mph - N/A   Overcast
6:30 AM 55.4 °F 55.4 °F 100% 30.09 in 1.2 mi WNW 3.5 mph - N/A   Overcast
6:50 AM 55.4 °F 55.4 °F 100% 30.08 in 3.0 mi West 3.5 mph - N/A   Overcast
7:10 AM 55.4 °F 55.4 °F 100% 30.09 in 1.5 mi NW 3.5 mph - N/A   Overcast
7:30 AM 55.4 °F 55.4 °F 100% 30.09 in 2.0 mi West 4.6 mph - N/A   Overcast
7:50 AM 55.4 °F 55.4 °F 100% 30.09 in 9.0 mi West 4.6 mph - N/A   Overcast
8:10 AM 55.4 °F 55.4 °F 100% 30.09 in 9.0 mi West 3.5 mph - N/A   Overcast
8:30 AM 57.2 °F 55.4 °F 94% 30.09 in 10.0 mi Calm Calm - N/A   Overcast
8:50 AM 57.2 °F 55.4 °F 94% 30.09 in 10.0 mi West 3.5 mph - N/A   Overcast
9:10 AM 57.2 °F 55.4 °F 94% 30.09 in 10.0 mi Calm Calm - N/A   Mostly Cloudy
9:30 AM 59.0 °F 55.4 °F 88% 30.09 in 10.0 mi Calm Calm - N/A   Mostly Cloudy
9:50 AM 59.0 °F 55.4 °F 88% 30.08 in 10.0 mi Calm Calm - N/A   Mostly Cloudy
10:10 AM 62.6 °F 55.4 °F 77% 30.08 in 10.0 mi NW 4.6 mph - N/A   Mostly Cloudy
10:30 AM 62.6 °F 55.4 °F 77% 30.08 in 10.0 mi WNW 3.5 mph - N/A   Mostly Cloudy
10:50 AM 64.4 °F 55.4 °F 73% 30.08 in 10.0 mi NW 4.6 mph - N/A   Scattered Clouds
11:10 AM 64.4 °F 57.2 °F 77% 30.09 in 10.0 mi WNW 11.5 mph - N/A   Scattered Clouds
11:30 AM 62.6 °F 55.4 °F 77% 30.09 in 10.0 mi NW 13.8 mph - N/A   Partly Cloudy
11:50 AM 62.6 °F 55.4 °F 77% 30.10 in 10.0 mi NW 13.8 mph - N/A   Partly Cloudy
12:10 PM 62.6 °F 55.4 °F 77% 30.10 in 10.0 mi WNW 15.0 mph - N/A   Partly Cloudy
12:50 PM 62.6 °F 55.4 °F 77% 30.11 in 10.0 mi West 12.7 mph - N/A   Scattered Clouds
1:10 PM 62.6 °F 55.4 °F 77% 30.11 in 10.0 mi West 13.8 mph - N/A   Partly Cloudy
1:30 PM 62.6 °F 55.4 °F 77% 30.12 in 10.0 mi WNW 16.1 mph - N/A   Partly Cloudy
1:50 PM 64.4 °F 55.4 °F 73% 30.11 in 10.0 mi WNW 13.8 mph - N/A   Partly Cloudy
2:10 PM 62.6 °F 55.4 °F 77% 30.12 in 10.0 mi WNW 17.3 mph 20.7 mph N/A   Partly Cloudy
2:30 PM 62.6 °F 55.4 °F 77% 30.12 in 10.0 mi West 16.1 mph - N/A   Partly Cloudy
2:50 PM 64.4 °F 55.4 °F 73% 30.13 in 10.0 mi West 15.0 mph - N/A   Scattered Clouds
3:10 PM 64.4 °F 55.4 °F 73% 30.12 in 10.0 mi WNW 12.7 mph 19.6 mph N/A   Scattered Clouds
3:30 PM 62.6 °F 55.4 °F 77% 30.12 in 10.0 mi West 16.1 mph 21.9 mph N/A   Mostly Cloudy
3:50 PM 62.6 °F 55.4 °F 77% 30.13 in 10.0 mi West 15.0 mph 20.7 mph N/A   Mostly Cloudy
4:10 PM 62.6 °F 55.4 °F 77% 30.13 in 10.0 mi West 16.1 mph - N/A   Partly Cloudy
4:30 PM 62.6 °F 55.4 °F 77% 30.13 in 10.0 mi West 15.0 mph 20.7 mph N/A   Partly Cloudy
4:50 PM 64.4 °F 55.4 °F 73% 30.13 in 10.0 mi West 16.1 mph 20.7 mph N/A   Scattered Clouds
5:10 PM 64.4 °F 55.4 °F 73% 30.13 in 10.0 mi West 15.0 mph 21.9 mph N/A   Partly Cloudy
5:30 PM 64.4 °F 55.4 °F 73% 30.13 in 10.0 mi WNW 17.3 mph 23.0 mph N/A   Partly Cloudy
5:50 PM 62.6 °F 55.4 °F 77% 30.13 in 10.0 mi West 18.4 mph - N/A   Clear
6:10 PM 62.6 °F 57.2 °F 82% 30.14 in 10.0 mi West 12.7 mph 20.7 mph N/A   Partly Cloudy
6:30 PM 64.4 °F 55.4 °F 73% 30.14 in 10.0 mi WNW 11.5 mph - N/A   Clear
6:50 PM 64.4 °F 57.2 °F 77% 30.14 in 10.0 mi WNW 11.5 mph - N/A   Clear
7:10 PM 62.6 °F 55.4 °F 77% 30.14 in 10.0 mi West 15.0 mph - N/A   Partly Cloudy
7:30 PM 60.8 °F 55.4 °F 82% 30.14 in 10.0 mi West 12.7 mph 18.4 mph N/A   Partly Cloudy
7:50 PM 59.0 °F 55.4 °F 88% 30.15 in 10.0 mi West 11.5 mph - N/A   Partly Cloudy
8:10 PM 59.0 °F 55.4 °F 88% 30.15 in 10.0 mi West 12.7 mph - N/A   Clear
8:30 PM 57.2 °F 55.4 °F 94% 30.15 in 10.0 mi West 12.7 mph - N/A   Clear
8:50 PM 57.2 °F 55.4 °F 94% 30.16 in 10.0 mi WNW 11.5 mph - N/A   Clear
9:10 PM 57.2 °F 55.4 °F 94% 30.16 in 10.0 mi West 9.2 mph - N/A   Clear
9:30 PM 55.4 °F 55.4 °F 100% 30.16 in 10.0 mi West 10.4 mph - N/A   Clear
9:50 PM 55.4 °F 55.4 °F 100% 30.17 in 10.0 mi West 9.2 mph - N/A   Clear
10:10 PM 55.4 °F 55.4 °F 100% 30.17 in 10.0 mi West 9.2 mph - N/A   Scattered Clouds
10:30 PM 55.4 °F 53.6 °F 94% 30.17 in 10.0 mi West 6.9 mph - N/A   Mostly Cloudy
10:50 PM 55.4 °F 53.6 °F 94% 30.17 in 10.0 mi West 6.9 mph - N/A   Mostly Cloudy
11:10 PM 55.4 °F 53.6 °F 94% 30.17 in 10.0 mi West 6.9 mph - N/A   Mostly Cloudy
11:30 PM 55.4 °F 53.6 °F 94% 30.17 in 10.0 mi West 5.8 mph - N/A   Mostly Cloudy
11:50 PM 55.4 °F 53.6 °F 94% 30.17 in 10.0 mi WNW 4.6 mph - N/A   Overcast